CDT,Max TemperatureF,Mean TemperatureF,Min TemperatureF,Max Dew PointF,MeanDew PointF,Min DewpointF,Max Humidity, Mean Humidity, Min Humidity, Max Sea Level PressureIn, Mean Sea Level PressureIn, Min Sea Level PressureIn, Max VisibilityMiles, Mean VisibilityMiles, Min VisibilityMiles, Max Wind SpeedMPH, Mean Wind SpeedMPH, Max Gust SpeedMPH,PrecipitationIn, CloudCover, Events, WindDirDegrees
2013-7-1,87,66,56,62,55,47,99,68,52,30.03,29.98,29.94,10,10,7,24,9,33,0.00,4,,38
2013-7-2,87,61,58,62,59,50,100,92,61,30.05,30.03,30.00,10,7,0,12,6,,0.00,8,,25
2013-7-3,87,68,61,68,65,61,100,92,77,30.10,30.05,30.00,10,7,1,13,4,,0.00,6,,199
2013-7-4,87,66,55,69,63,56,100,85,63,30.14,30.11,30.07,10,7,0,8,2,,0.00,1,,174
2013-7-5,87,70,58,71,66,59,100,86,64,30.13,30.09,30.04,10,7,0,10,2,,0.00,2,,179
2013-7-6,87,72,66,73,70,66,100,93,81,30.10,30.06,30.01,10,9,4,10,4,,0.00,4,,176
2013-7-7,87,74,65,74,70,66,100,89,69,30.06,30.03,29.98,10,8,2,10,6,,0.00,2,,199
2013-7-8,87,76,69,76,72,69,99,89,75,30.10,30.02,29.97,10,9,2,16,8,23,0.00,3,,220
2013-7-9,87,76,70,78,75,71,100,93,79,30.01,29.97,29.90,10,8,2,22,6,29,0.00,1,,228
2013-7-10,87,68,58,77,70,59,100,90,65,30.01,29.91,29.85,10,9,0,16,6,21,0.00,3,,279
2013-7-11,87,66,54,66,57,54,100,78,46,30.09,30.07,30.01,10,8,0,14,3,17,0.00,1,,358
2013-7-12,87,66,52,64,58,52,100,76,44,30.15,30.12,30.08,10,8,0,9,2,,0.00,0,,55
2013-7-13,87,68,53,68,62,54,100,77,49,30.17,30.14,30.12,10,9,3,10,3,,0.00,1,,88
2013-7-14,87,74,62,74,69,62,100,79,51,30.22,30.19,30.15,10,9,1,10,4,,0.00,1,,97
2013-7-15,89,78,68,76,73,68,100,85,58,30.29,30.25,30.22,10,9,1,8,3,,0.00,1,,182
2013-7-16,89,78,67,77,72,67,100,82,53,30.34,30.30,30.27,10,9,0,8,2,,0.00,0,,224
2013-7-17,90,79,68,78,73,68,100,81,51,30.34,30.28,30.20,10,9,1,8,2,,0.00,1,,256
2013-7-18,91,80,70,78,74,71,100,81,52,30.20,30.11,30.00,10,9,3,10,3,16,0.00,0,,228
2013-7-19,92,83,74,76,74,70,98,75,52,30.00,29.89,29.80,10,10,7,17,8,24,0.00,1,,226
2013-7-20,92,76,64,76,67,56,98,71,36,29.93,29.86,29.80,10,10,10,13,7,18,0.00,2,,325
2013-7-21,92,74,61,73,65,59,100,77,40,29.98,29.93,29.88,10,10,5,10,3,,0.00,0,,140
2013-7-22,92,75,67,72,69,67,100,85,58,29.91,29.83,29.77,10,9,1,18,6,20,0.00,4,,155
2013-7-23,92,68,55,71,64,53,99,83,64,29.96,29.82,29.72,10,10,7,20,8,25,0.00,2,,308
2013-7-24,92,60,47,55,50,46,100,74,38,30.05,30.01,29.95,10,10,10,13,6,17,0.00,0,,13
2013-7-25,92,62,48,62,54,48,100,76,39,30.12,30.08,30.04,10,9,0,6,1,,0.00,1,,227
2013-7-26,92,66,57,65,60,57,100,83,61,30.08,30.00,29.90,10,10,7,13,5,17,0.00,4,,199
2013-7-27,92,62,53,66,58,49,100,83,61,29.92,29.88,29.86,10,9,0,18,7,24,0.00,5,,289
2013-7-28,92,58,48,52,49,45,97,75,45,30.03,29.95,29.89,10,10,10,16,7,22,0.00,5,,256
2013-7-29,74,62,50,58,54,49,99,74,51,30.19,30.11,30.03,10,10,7,13,5,16,0.00,3,,282
2013-7-30,74,62,49,64,58,50,100,82,56,30.21,30.16,30.09,10,8,1,8,2,,0.00,4,,163
2013-7-31,74,66,60,69,66,60,100,98,91,30.09,30.01,29.96,10,4,0,13,3,21,0.00,7,,217